• In Hungary
  • List of Countries
  • For 7 days
  • Water Temperature
  • Satellite Maps
  • Weather Map
  • News
  • Weather Widgets
  • user-avatar
    Login

    Hourly Weather Ibarra

    Today, 22 February, Thursday

    Time Temperature Precipitation Wind Pressure Humidity
    00:00 +12°C° 0.3 mm 0 mps 570 mmHg 92%
    01:00 +12°C° 0 mm 0 mps 570 mmHg 91%
    02:00 +12°C° 0.4 mm 0 mps 570 mmHg 91%
    03:00 +11°C° 0.4 mm 0 mps 569 mmHg 91%
    04:00 +11°C° 0.4 mm 0 mps 569 mmHg 90%
    05:00 +11°C° 0.1 mm 0 mps 569 mmHg 89%
    06:00 +12°C° 0.1 mm 0 mps 570 mmHg 88%
    07:00 +12°C° 0.1 mm 0 mps 570 mmHg 86%
    08:00 +15°C° 0.1 mm 1 mps 571 mmHg 79%
    09:00 +16°C° 0.1 mm 1 mps 572 mmHg 72%
    10:00 +19°C° 0.1 mm 1 mps 573 mmHg 65%
    11:00 +19°C° 0.3 mm 1 mps 572 mmHg 66%
    12:00 +19°C° 0.3 mm 1 mps 572 mmHg 66%
    13:00 +19°C° 0.3 mm 2 mps 572 mmHg 66%
    14:00 +18°C° 0.6 mm 2 mps 571 mmHg 69%
    15:00 +18°C° 0.6 mm 2 mps 570 mmHg 72%
    16:00 +17°C° 0.6 mm 2 mps 570 mmHg 75%
    17:00 +16°C° 0.7 mm 2 mps 569 mmHg 80%
    18:00 +15°C° 0.7 mm 1 mps 569 mmHg 85%
    19:00 +14°C° 0.7 mm 1 mps 569 mmHg 90%
    20:00 +14°C° 0.3 mm 1 mps 569 mmHg 91%
    21:00 +13°C° 0.3 mm 1 mps 569 mmHg 92%
    22:00 +12°C° 0.3 mm 0 mps 570 mmHg 92%
    23:00 +12°C° 0.1 mm 0 mps 569 mmHg 92%

    Tomorrow, 23 February, Friday

    Time Temperature Precipitation Wind Pressure Humidity
    00:00 +11°C° 0.1 mm 0 mps 569 mmHg 91%
    01:00 +11°C° 0.1 mm 0 mps 569 mmHg 91%
    02:00 +11°C° 0.1 mm 0 mps 569 mmHg 90%
    03:00 +11°C° 0.1 mm 0 mps 568 mmHg 89%
    04:00 +10°C° 0.1 mm 0 mps 568 mmHg 88%
    05:00 +11°C° 0.1 mm 0 mps 568 mmHg 87%
    06:00 +11°C° 0.1 mm 0 mps 569 mmHg 86%
    07:00 +11°C° 0.1 mm 0 mps 569 mmHg 85%
    08:00 +14°C° 0 mm 1 mps 570 mmHg 78%
    09:00 +16°C° 0 mm 1 mps 571 mmHg 71%
    10:00 +19°C° 0 mm 1 mps 572 mmHg 64%
    11:00 +19°C° 0.3 mm 1 mps 572 mmHg 64%
    12:00 +18°C° 0.3 mm 2 mps 572 mmHg 65%
    13:00 +19°C° 0.3 mm 2 mps 571 mmHg 65%
    14:00 +18°C° 0.6 mm 2 mps 571 mmHg 67%
    15:00 +18°C° 0.6 mm 2 mps 570 mmHg 70%
    16:00 +18°C° 0.6 mm 2 mps 569 mmHg 73%
    17:00 +16°C° 0.8 mm 2 mps 569 mmHg 78%
    18:00 +15°C° 0.8 mm 2 mps 569 mmHg 84%
    19:00 +14°C° 0.8 mm 1 mps 568 mmHg 89%
    20:00 +14°C° 0.4 mm 1 mps 569 mmHg 90%
    21:00 +13°C° 0.4 mm 1 mps 569 mmHg 90%
    22:00 +13°C° 0.4 mm 1 mps 569 mmHg 91%
    23:00 +13°C° 0.3 mm 1 mps 569 mmHg 89%

    Day after tomorrow, 24 February, Saturday

    Time Temperature Precipitation Wind Pressure Humidity
    00:00 +13°C° 0.3 mm 1 mps 569 mmHg 88%
    01:00 +11°C° 0.3 mm 0 mps 569 mmHg 87%
    02:00 +11°C° 0.2 mm 0 mps 568 mmHg 87%
    03:00 +12°C° 0.2 mm 1 mps 568 mmHg 86%
    04:00 +12°C° 0.2 mm 1 mps 568 mmHg 86%
    05:00 +12°C° 0.1 mm 1 mps 568 mmHg 85%
    06:00 +12°C° 0.1 mm 1 mps 568 mmHg 84%
    07:00 +12°C° 0.1 mm 1 mps 569 mmHg 83%
    08:00 +14°C° 0.1 mm 1 mps 570 mmHg 76%
    09:00 +16°C° 0.1 mm 1 mps 571 mmHg 69%
    10:00 +19°C° 0.1 mm 1 mps 572 mmHg 62%
    11:00 +18°C° 0.4 mm 2 mps 572 mmHg 64%
    12:00 +18°C° 0.4 mm 2 mps 571 mmHg 65%
    13:00 +18°C° 0.4 mm 3 mps 571 mmHg 67%
    14:00 +18°C° 0.6 mm 3 mps 570 mmHg 69%
    15:00 +17°C° 0.6 mm 3 mps 569 mmHg 72%
    16:00 +17°C° 0.6 mm 3 mps 569 mmHg 74%
    17:00 +16°C° 0.7 mm 2 mps 569 mmHg 79%
    18:00 +15°C° 0.7 mm 2 mps 569 mmHg 84%
    19:00 +14°C° 0.7 mm 1 mps 568 mmHg 88%
    20:00 +13°C° 0.4 mm 1 mps 569 mmHg 89%
    21:00 +13°C° 0.4 mm 1 mps 569 mmHg 89%
    22:00 +12°C° 0.4 mm 1 mps 569 mmHg 90%
    23:00 +12°C° 0.2 mm 1 mps 569 mmHg 88%

    25 February, Sunday

    Time Temperature Precipitation Wind Pressure Humidity
    00:00 +12°C° 0.2 mm 1 mps 569 mmHg 87%
    01:00 +11°C° 0.2 mm 1 mps 568 mmHg 86%
    02:00 +11°C° 0.1 mm 1 mps 568 mmHg 86%
    03:00 +11°C° 0.1 mm 1 mps 567 mmHg 85%
    04:00 +10°C° 0.1 mm 1 mps 567 mmHg 85%
    05:00 +11°C° 0 mm 1 mps 568 mmHg 82%
    06:00 +11°C° 0 mm 1 mps 568 mmHg 80%
    07:00 +11°C° 0 mm 1 mps 569 mmHg 78%
    08:00 +14°C° 0 mm 1 mps 570 mmHg 69%
    09:00 +16°C° 0 mm 1 mps 572 mmHg 61%
    10:00 +20°C° 0 mm 1 mps 573 mmHg 52%
    11:00 +19°C° 0.2 mm 2 mps 572 mmHg 54%
    12:00 +19°C° 0.2 mm 2 mps 572 mmHg 56%
    13:00 +20°C° 0.2 mm 3 mps 571 mmHg 58%
    14:00 +19°C° 0.5 mm 3 mps 570 mmHg 62%
    15:00 +18°C° 0.5 mm 3 mps 570 mmHg 67%
    16:00 +17°C° 0.5 mm 3 mps 569 mmHg 72%
    17:00 +16°C° 0.6 mm 2 mps 569 mmHg 77%
    18:00 +15°C° 0.6 mm 2 mps 569 mmHg 83%
    19:00 +13°C° 0.6 mm 1 mps 569 mmHg 88%
    20:00 +13°C° 0.3 mm 1 mps 569 mmHg 88%
    21:00 +12°C° 0.3 mm 1 mps 569 mmHg 88%
    22:00 +12°C° 0.3 mm 1 mps 570 mmHg 89%
    23:00 +12°C° 0.1 mm 1 mps 569 mmHg 87%

    26 February, Monday

    Time Temperature Precipitation Wind Pressure Humidity
    00:00 +11°C° 0.1 mm 1 mps 569 mmHg 85%
    01:00 +11°C° 0.1 mm 1 mps 569 mmHg 84%
    02:00 +11°C° 0.1 mm 1 mps 568 mmHg 82%
    03:00 +11°C° 0.1 mm 1 mps 568 mmHg 80%
    04:00 +11°C° 0.1 mm 1 mps 568 mmHg 77%
    05:00 +11°C° 0 mm 1 mps 568 mmHg 76%
    06:00 +11°C° 0 mm 1 mps 569 mmHg 74%
    07:00 +12°C° 0 mm 1 mps 569 mmHg 73%
    08:00 +14°C° 0 mm 1 mps 571 mmHg 66%
    09:00 +16°C° 0 mm 1 mps 572 mmHg 59%
    10:00 +20°C° 0 mm 1 mps 573 mmHg 53%
    11:00 +19°C° 0.3 mm 2 mps 573 mmHg 57%
    12:00 +18°C° 0.3 mm 2 mps 572 mmHg 61%
    13:00 +18°C° 0.3 mm 3 mps 571 mmHg 65%
    14:00 +18°C° 0.9 mm 3 mps 570 mmHg 70%
    15:00 +17°C° 0.9 mm 3 mps 570 mmHg 74%
    16:00 +16°C° 0.9 mm 3 mps 569 mmHg 78%
    17:00 +15°C° 0.9 mm 2 mps 569 mmHg 82%
    18:00 +15°C° 0.9 mm 2 mps 569 mmHg 86%
    19:00 +14°C° 0.9 mm 1 mps 569 mmHg 89%
    20:00 +13°C° 0.6 mm 1 mps 569 mmHg 90%
    21:00 +13°C° 0.6 mm 1 mps 569 mmHg 90%
    22:00 +12°C° 0.6 mm 0 mps 569 mmHg 90%
    23:00 +12°C° 0.2 mm 1 mps 569 mmHg 89%

    27 February, Tuesday

    Time Temperature Precipitation Wind Pressure Humidity
    00:00 +12°C° 0.2 mm 1 mps 569 mmHg 87%
    01:00 +12°C° 0.2 mm 1 mps 569 mmHg 86%
    02:00 +12°C° 0.2 mm 1 mps 568 mmHg 86%
    03:00 +12°C° 0.2 mm 1 mps 568 mmHg 85%
    04:00 +12°C° 0.2 mm 1 mps 568 mmHg 85%
    05:00 +12°C° 0.1 mm 1 mps 568 mmHg 84%
    06:00 +12°C° 0.1 mm 1 mps 569 mmHg 83%
    07:00 +12°C° 0.1 mm 1 mps 569 mmHg 82%
    08:00 +14°C° 0.1 mm 1 mps 570 mmHg 74%
    09:00 +16°C° 0.1 mm 1 mps 571 mmHg 65%
    10:00 +19°C° 0.1 mm 1 mps 572 mmHg 57%
    11:00 +19°C° 0.4 mm 1 mps 572 mmHg 60%
    12:00 +19°C° 0.4 mm 2 mps 571 mmHg 62%
    13:00 +19°C° 0.4 mm 2 mps 571 mmHg 64%
    14:00 +18°C° 0.9 mm 2 mps 570 mmHg 69%
    15:00 +17°C° 0.9 mm 2 mps 569 mmHg 73%
    16:00 +16°C° 0.9 mm 2 mps 568 mmHg 78%
    17:00 +16°C° 1 mm 1 mps 568 mmHg 82%
    18:00 +15°C° 1 mm 1 mps 568 mmHg 86%
    19:00 +14°C° 1 mm 1 mps 568 mmHg 89%
    20:00 +14°C° 0.8 mm 1 mps 569 mmHg 90%
    21:00 +14°C° 0.8 mm 1 mps 569 mmHg 90%
    22:00 +13°C° 0.8 mm 1 mps 569 mmHg 90%
    23:00 +13°C° 0.5 mm 1 mps 569 mmHg 89%
    Show more